DW0494 Weather Reports


Display with metric or nautical units.
time (UTC)temp
F
wind
direction
speed
MPH
gust
MPH
rain 1hr
in
rain 24hr
in
rain mn
in
humidity
%
barometer
mb
20260902213404 73 15 5.0 12.0 0.00 0.15 0.00 82 1019.8
20260902212903 73 19 6.0 12.0 0.02 0.15 0.00 82 1019.6
20260902212404 73 13 4.0 13.0 0.08 0.15 0.00 82 1019.5
20260902211904 72 20 5.0 13.0 0.10 0.15 0.00 83 1019.4
20260902211404 72 28 5.0 12.0 0.10 0.15 0.00 84 1019.4
20260902210904 71 22 6.0 12.0 0.10 0.15 0.00 86 1019.5
20260902210404 70 29 5.0 12.0 0.10 0.15 0.00 87 1019.7
20260902205903 70 17 4.0 12.0 0.10 0.15 0.15 87 1019.9
20260902204903 70 25 5.0 12.0 0.10 0.15 0.15 84 1019.6
20260902204404 71 33 4.0 15.0 0.10 0.15 0.15 84 1019.7
20260902203904 70 21 8.0 22.0 0.10 0.15 0.15 84 1019.4
20260902203404 70 24 10.0 22.0 0.10 0.15 0.15 86 1019.3
20260902202903 71 17 9.0 18.0 0.09 0.14 0.14 86 1019.2
20260902202403 74 30 7.0 12.0 0.03 0.08 0.08 82 1019.6
20260902201903 77 14 5.0 8.0 0.01 0.06 0.06 83 1019.8
20260902200911 78 306 0.0 1.0 0.00 0.05 0.05 81 1019.7
20260902200404 78 226 0.0 1.0 0.00 0.05 0.05 78 1019.3
20260902195904 78 49 0.0 3.0 0.00 0.05 0.05 78 1019.1
20260902194904 78 48 1.0 3.0 0.00 0.05 0.05 78 1019.1
20260902194404 78 41 1.0 3.0 0.00 0.05 0.05 78 1019.2
20260902193903 78 32 1.0 3.0 0.00 0.05 0.05 79 1019.2
20260902193403 78 35 1.0 3.0 0.00 0.05 0.05 79 1019.2
20260902192903 78 15 1.0 3.0 0.00 0.05 0.05 80 1019.3
20260902192403 78 37 1.0 2.0 0.00 0.05 0.05 79 1019.2
20260902190904 80 32 0.0 1.0 0.00 0.05 0.05 72 1019.1
20260902190404 80 30 0.0 0.0 0.00 0.05 0.05 71 1019.3
20260902185903 80 30 0.0 0.0 0.00 0.05 0.05 71 1019.2
20260902185403 80 30 0.0 0.0 0.00 0.05 0.05 71 1019.2
20260902184404 80 30 0.0 2.0 0.00 0.05 0.05 71 1019.1
20260902183904 80 30 0.0 2.0 0.00 0.05 0.05 71 1019.1
20260902183404 80 87 0.0 1.0 0.00 0.05 0.05 71 1019.2
20260902182903 80 110 0.0 1.0 0.00 0.05 0.05 71 1019.1
20260902182403 80 180 0.0 1.0 0.00 0.05 0.05 71 1019.1
20260902181904 80 186 0.0 1.0 0.00 0.05 0.05 71 1019.1
20260902181404 80 186 0.0 1.0 0.00 0.05 0.05 70 1019.0
20260902180404 80 161 0.0 1.0 0.00 0.05 0.05 70 1018.8
20260902175903 80 167 0.0 1.0 0.00 0.05 0.05 70 1018.8
20260902174904 81 198 0.0 1.0 0.00 0.05 0.05 69 1018.7
20260902174404 81 133 0.0 3.0 0.00 0.05 0.05 69 1018.6
20260902173403 81 335 0.0 3.0 0.00 0.05 0.05 69 1018.6
20260902172904 82 117 0.0 1.0 0.00 0.05 0.05 68 1018.6
20260902171904 82 128 0.0 2.0 0.00 0.05 0.05 67 1018.6